Tracking 30744 objects as of 23-Jun-2025
HD Live streaming from Space Station
objects crossing your sky now

TOMORROW-S3

Track TOMORROW-S3 now!
10-day predictions


NORAD ID: 62392
Int'l Code: 2024-247R
Perigee: 501.1 km
Apogee: 507.2 km
Inclination: 45.0 °
Period: 94.6 minutes
Semi major axis: 6875 km
RCS: Unknown
Launch date: December 21, 2024
Source: United States (US)
Launch site: AIR FORCE WESTERN TEST RANGE (AFWTR)
Your satellite tracking list
Your tracking list is empty




NASA's NSSDC Master Catalog

Two Line Element Set (TLE):
1 62392U 24247R   25173.19057034  .00003852  00000-0  17297-3 0  9995
2 62392  44.9973  93.5830 0004408 129.0040 231.1234 15.22932350 27962
Source of the keplerian elements: AFSPC